This is the latest recevied weather packets stored in our database for station/object K6JWN. If no packets are shown the sender has not sent any weather packets the latest 10 day(s).
| Time | Temp. | Humidity | Pressure | Rain* | Wind** | Luminosity | Snow |
|---|---|---|---|---|---|---|---|
| 1778254757 | 12.78° C | 79% | 1017.4 hPa | 0 mm | - | - | - |
| 1778254157 | 12.78° C | 79% | 1017.4 hPa | 0 mm | - | - | - |
| 1778253557 | 12.78° C | 79% | 1017.3 hPa | 0 mm | - | - | - |
| 1778252957 | 12.78° C | 79% | 1017.3 hPa | 0 mm | - | - | - |
| 1778252357 | 12.78° C | 79% | 1017.3 hPa | 0 mm | - | - | - |
| 1778251757 | 12.78° C | 79% | 1017 hPa | 0 mm | - | - | - |
| 1778251157 | 12.22° C | 80% | 1017.1 hPa | 0 mm | - | - | - |
| 1778250557 | 11.67° C | 81% | 1017.1 hPa | 0 mm | - | - | - |
| 1778249957 | 11.67° C | 83% | 1016.9 hPa | 0 mm | - | - | - |
| 1778249357 | 11.11° C | 83% | 1016.8 hPa | 0 mm | - | - | - |
| 1778248757 | 11.11° C | 84% | 1016.7 hPa | 0 mm | - | - | - |
| 1778248157 | 10.56° C | 84% | 1016.5 hPa | 0 mm | - | - | - |
| 1778247556 | 10.56° C | 83% | 1016.5 hPa | 0 mm | - | - | - |
| 1778246957 | 10.56° C | 83% | 1016.4 hPa | 0 mm | - | - | - |
| 1778246357 | 10.56° C | 84% | 1016.5 hPa | 0 mm | - | - | - |
| 1778245757 | 10.56° C | 83% | 1016.5 hPa | 0 mm | - | - | - |
| 1778245157 | 10.56° C | 83% | 1016.5 hPa | 0 mm | - | - | - |
| 1778244557 | 10.56° C | 84% | 1016.3 hPa | 0 mm | - | - | - |
| 1778243957 | 10.56° C | 84% | 1016.2 hPa | 0 mm | - | - | - |
| 1778243357 | 10.56° C | 84% | 1016.2 hPa | 0 mm | - | - | - |
| 1778242756 | 10.56° C | 84% | 1016.2 hPa | 0 mm | - | - | - |
| 1778242156 | 11.11° C | 84% | 1016.1 hPa | 0 mm | - | - | - |
| 1778241556 | 11.11° C | 84% | 1016 hPa | 0 mm | - | - | - |
| 1778240956 | 11.11° C | 84% | 1016 hPa | 0 mm | - | - | - |
| 1778240357 | 11.11° C | 84% | 1015.9 hPa | 0 mm | - | - | - |
* Rain latest hour (hover to see other rain measurements)
** Current wind speed in m/s (hover to see current wind gust speed)